Location: Lane
(33.5226°N, 79.8788°W)
Time: 19:51:57
(UTC+00:00)

Explorer 11/Cluster Stage 4 - Pass Details

Date: 05 October 2022
Orbit: 466 x 1247 km, 28.8° (Epoch: 01 December)

Event Time Altitude Azimuth Distance (km) Brightness Sun altitude
Rises 20:29:44 0° 272° (W) 3,986 11.1 28.7°
Reaches altitude 10° 20:33:04 10° 263° (W) 2,917 10.8 28.1°
Maximum altitude 20:39:10 31° 204° (SSW) 1,606 9.3 27.0°
Drops below altitude 10° 20:44:17 10° 144° (SE) 2,426 9.1 26.0°
Sets 20:46:49 0° 134° (SE) 3,226 9.5 25.6°
